Regional Weather Roundup
Issued by NWS

Home | Current Version | Previous Version | Graphics & Text | Print | Product List | Glossary On
Versions: 1 2 3 4 5 6 7 8 9 10 11 12 13 14 15 16 17 18 19 20 21 22 23 24 25 26 27 28 29 30 31 32 33 34 35 36 37 38 39 40 41 42 43 44 45 46 47 48 49 50
000
ASUS45 KSLC 031210
RWRUT

UTAH REGIONAL WEATHER ROUNDUP
NATIONAL WEATHER SERVICE SALT LAKE CITY UT
600 AM MDT SUN MAY 03 2015

UTZ001>011-023>025-031300-

NORTHERN UTAH

CITY           SKY/WX    TMP DP  RH WIND       PRES   REMARKS
BRIGHAM CITY   MOCLDY    64  36  36 S3        29.88S
HILL AFB       MOCLDY    62  38  41 E9        29.90S
LOGAN          MOCLDY    54  41  61 N6        29.89R
OGDEN          MOCLDY    61  44  53 E5        29.88F
PROVO AIRPORT  PTCLDY    52  36  54 E6        29.91S
SALT LAKE CITY MOCLDY    59  40  49 S7        29.87F
VERNAL         PTCLDY    47  32  56 CALM      29.95S
WENDOVER       CLOUDY    63  34  34 CALM      29.86S
HEBER CITY     PTCLDY    39  34  81 SE3       29.98R
WEST JORDAN    PTCLDY    59  39  47 SW3       29.90S

$$

UTZ012>022-026-027-031300-

SOUTHERN/CENTRAL UTAH

CITY           SKY/WX    TMP DP  RH WIND       PRES   REMARKS
BLANDING       CLOUDY    56  32  40 CALM      30.09S
BRYCE CANYON   CLOUDY    39  31  72 CALM      30.10S
CEDAR CITY     PTCLDY    47  29  49 S3        29.97S
DELTA          PTCLDY    56  29  35 S9        29.91S
HANKSVILLE     CLOUDY    61  27  27 SW5       29.91S
MILFORD        PTCLDY    49  27  42 CALM      29.93S
MOAB/CYNLANDS  MOCLDY    65  27  23 NE9       29.89R
PRICE          PTCLDY    46  24  42 N7        29.96R
ST GEORGE      MOSUNNY   63  28  27 CALM      29.87R
KANAB          PTCLDY    43  32  65 NE6       30.01S

$$

REGIONAL REPORTS     COLORADO/ARIZONA

CITY           SKY/WX    TMP DP  RH WIND       PRES   REMARKS
CRAIG, CO      MOCLDY    37  34  89 CALM      30.01F
GRAND JUNCTION PTCLDY    52  39  61 CALM      29.92S
RIFLE          PTCLDY    45  37  73 E5        30.00F
MONTROSE       PTCLDY    54  33  45 SE9       30.01S
CORTEZ         CLOUDY    47  36  65 CALM      30.04S
PAGE, AZ       MOCLDY    64  31  28 CALM      29.93S
GRAND CANYON   CLOUDY    37  30  75 NE3       30.08S
KINGMAN        PTCLDY    56  32  40 SE7       29.90S
FLAGSTAFF      MOCLDY    49  36  61 SW10      30.12R

$$

REGIONAL REPORTS    NEVADA/IDAHO/WYOMING

CITY           SKY/WX    TMP DP  RH WIND       PRES   REMARKS
LAS VEGAS, NV  PTCLDY    71  29  21 S6        29.76R
ELY            PTCLDY    41  21  44 S12       29.99S
ELKO           MOCLDY    52  35  52 CALM      29.91S
POCATELLO, ID  CLEAR     48  37  65 E7        29.90S
BURLEY         MOCLDY    49  39  68 SE3       29.87R
EVANSTON, WY   CLOUDY    46  30  53 SW5       30.03R
ROCK SPRINGS   CLOUDY    45  38  76 SW7       30.02R
KEMMERER       CLOUDY    45  32  61 S8        30.03R

$$



USA.gov is the U.S. government's official web portal to all federal, state and local government web resources and services.